Simultaneous Nadir Overpasses (SNOs) Predictions

Prediction of SNOs between NOAA-20 and LANDSAT-8 Satellite Orbit:

Table of predicted SNOs for the next 14.0 days since TLE Epoch: 11/12/2022
Index Date (NOAA-20) Time (NOAA-20) Lat,Lon (NOAA-20) SZA (NOAA-20 ) Date (LANDSAT-8) Time (LANDSAT-8) Lat,Lon (LANDSAT-8) SZA (LANDSAT-8 ) Distance(km) Time Diff (sec)
1 11/13/2022 15:06:03 -70.10, 129.74 91.95 11/13/2022 15:07:13 -70.10, 129.76 91.95 1.06 70
2 11/13/2022 15:56:47 69.99, -62.79 87.96 11/13/2022 15:56:40 70.00, -62.73 87.97 2.58 7
3 11/13/2022 16:47:25 -69.68, 104.98 92.35 11/13/2022 16:46:12 -69.77, 104.58 92.26 18.54 73
4 11/16/2022 07:22:56 -70.06,-114.44 91.30 11/16/2022 07:23:41 -70.04,-114.43 91.32 2.53 45
5 11/16/2022 08:13:40 69.96, 53.03 88.61 11/16/2022 08:13:08 69.94, 53.07 88.59 2.91 32
6 11/18/2022 22:49:20 70.83,-167.19 90.12 11/18/2022 22:50:27 70.73,-165.16 90.02 74.86 67
7 11/18/2022 23:39:49 -70.04, 1.38 90.67 11/18/2022 23:40:08 -70.02, 1.42 90.70 3.07 19
8 11/19/2022 00:30:32 69.89, 168.92 89.19 11/19/2022 00:29:35 69.91, 168.92 89.21 2.59 57
9 11/21/2022 15:05:58 70.07, -50.21 89.96 11/21/2022 15:07:04 70.08, -50.23 89.97 0.91 66
10 11/21/2022 15:56:40 -69.97, 117.26 90.14 11/21/2022 15:56:34 -69.97, 117.24 90.14 0.80 6
11 11/21/2022 16:47:17 69.50, -74.73 89.40 11/21/2022 16:46:06 69.58, -75.64 89.48 36.55 71
12 11/24/2022 07:22:51 70.07, 65.58 90.52 11/24/2022 07:23:30 70.06, 65.63 90.51 2.10 39
13 11/24/2022 08:13:33 -69.96,-126.94 89.59 11/24/2022 08:13:00 -69.95,-126.89 89.60 2.11 33



Historial Predications of SNOs between NOAA-20 and LANDSAT-8
